Current weather by "City, St" or "zip code"  
 
Advertise Here

Current Conditions: Hobart, Hobart Municipal Airport, OK

A Few Clouds


37.0 F

Last Updated on Jan 27 2021, 12:53 pm CST
Humidity: 57%
Wind Speed: N 13.8 G 20.7 mph
Barometer 30.42 in
Dewpoint: 23.0 F
Visibility: 10.00 mi
Precip: --
Heat Index: NA
Wind Chill: 28 F
Current conditions at:

Hobart, Hobart Municipal Airport, OK (KHBR)

Lat: 34.98944 Lon: 99.0525

Local Radar Image active severe weather and emergency alerts image image weather storm and storm spotter reports image weather observation monitoring service image
Local
Radar
Active
Alerts
Storm Reports Obs
Monitoring

Sign-up For Email & Text Message Weather Alert Notification Services


Advertise Here

Observation History for Hobart, Hobart Municipal Airport, OK


Time Wind
(mph)
Vis
(mi)
Weather Precip (in) Temperature (F) Relative
Humidity
Wind
Chill
(F)
Heat
Index
(F)
Pressure
Air Dwpt altimeter
(in)
sea level
(mb)
Rmks
12:53 pm CST N 13.8 G 20.7 10.00 A Few Clouds -- 37.0 23.0 57% 28 NA 30.42 1031.4
11:53 am CST N 13.8 10.00 Overcast -- 34.0 24.1 67% 25 NA 30.45 1032.5
10:53 am CST 9.00 Overcast -- 32.0 25.0 75% NA NA 30.43 1031.7
9:53 am CST N 10.4 7.00 Overcast -- 31.0 26.1 82% 22 NA 30.39 1030.4
8:53 am CST N 11.5 8.00 Overcast -- 30.0 25.0 82% 20 NA 30.34 1028.8
7:53 am CST 5.00 Fog/Mist -- 29.0 26.1 89% NA NA 30.30 1027.3
6:53 am CST N 6.9 5.00 Fog/Mist -- 24.0 23.0 96% 16 NA 30.25 1025.9
5:53 am CST NE 4.6 6.00 Fog/Mist -- 28.0 25.0 88% 23 NA 30.21 1024.2
4:53 am CST N 6.9 5.00 Fog/Mist -- 27.0 25.0 92% 20 NA 30.20 1023.7
3:53 am CST NE 3.5 4.00 Fog/Mist -- 26.0 25.0 96% NA NA 30.16 1022.6
2:53 am CST NE 5.8 5.00 Fog/Mist -- 27.0 25.0 92% 20 NA 30.15 1022.1
1:53 am CST NE 5.8 6.00 Fog/Mist -- 28.0 26.1 92% 22 NA 30.13 1021.3
12:53 am CST NE 11.5 8.00 Overcast -- 30.0 26.1 85% 20 NA 30.12 1020.9
11:53 pm CST NE 12.7 8.00 Fair -- 29.0 26.1 89% 19 NA 30.10 1020.3
10:53 pm CST E 12.7 8.00 Fair -- 30.0 26.1 85% 20 NA 30.07 1019.4
9:53 pm CST NE 11.5 8.00 Mostly Cloudy -- 30.0 25.0 82% 20 NA 30.06 1019.0
8:53 pm CST NE 11.5 9.00 Mostly Cloudy -- 30.0 25.0 82% 20 NA 30.07 1019.4
7:53 pm CST NE 9.2 8.00 Partly Cloudy -- 30.0 25.0 82% 22 NA 30.05 1019.0
6:53 pm CST 10.00 Fair -- 30.0 25.0 82% NA NA 30.03 1018.2
5:53 pm CST 9.00 Fair -- 32.0 26.1 79% NA NA 30.00 1017.0
4:53 pm CST NE 11.5 10.00 Fair -- 36.0 26.1 67% 28 NA 29.97 1015.8
3:53 pm CST NE 10.4 10.00 Fair -- 37.0 26.1 65% 30 NA 29.95 1015.4
2:53 pm CST 10.00 Fair -- 38.0 26.1 62% NA NA 29.95 1015.2
1:53 pm CST NE 11.5 10.00 Fair -- 36.0 26.1 67% 28 NA 29.95 1015.3

Regional Weather Observation


Elk City Regional Business Airport, OK (KELK)

Fair
34.0 F

Hobart, Hobart Municipal Airport, OK (KHBR)

A Few Clouds
37.0 F

Clinton, Clinton Regional Airport, OK (KCLK)

Fair
36.0 F

Altus, Altus/Quartz Mountain Regional Airport, OK (KAXS)

Partly Cloudy
39.0 F

Altus Air Force Base, OK (KLTS)

Mostly Cloudy
35.0 F

Weatherford, Thomas P Stafford Airport, OK (KOJA)

Fair
33.0 F